Total_Precipitation_Accumulation
0.00 0.01 0.03 0.05 0.07 0.09 0.10 0.14 0.24 0.34 0.29 0.29 0.34 0.46 0.61 0.79 0.81 0.73 0.80 0.98 0.96 0.97 1.09 1.26 1.74 2.28 2.66 3.11 3.39 3.33 3.13 3.17 3.30 3.36 3.16 3.33 3.56 3.83 4.06 3.96 3.84 3.78 3.74 3.71
0.01 0.01 0.02 0.04 0.07 0.05 0.08 0.12 0.19 0.31 0.25 0.24 0.34 0.56 0.78 0.87 0.98 1.01 0.98 1.12 1.03 0.99 1.11 1.38 1.82 2.12 2.52 2.86 3.01 3.26 3.36 3.38 3.22 3.52 3.73 3.94 4.26 4.40 4.64 4.87 4.95 4.84 4.59 4.37
0.03 0.01 0.01 0.02 0.03 0.03 0.05 0.09 0.16 0.23 0.21 0.25 0.38 0.77 0.92 1.05 1.06 1.20 1.27 1.37 1.30 1.27 1.35 1.61 1.90 2.06 2.31 2.71 2.95 3.23 3.50 3.58 3.49 3.88 4.40 4.81 5.11 5.11 5.19 5.24 5.30 5.26 4.82 4.43
0.02 0.01 0.01 0.01 0.01 0.03 0.05 0.06 0.09 0.13 0.17 0.31 0.34 0.72 1.01 1.18 1.26 1.20 1.31 1.34 1.41 1.27 1.25 1.47 1.68 2.07 2.19 2.50 2.77 3.03 3.34 3.71 4.00 4.41 4.89 5.46 5.73 5.84 5.76 5.47 5.22 4.89 4.45 4.06
0.01 0.01 0.02 0.03 0.03 0.03 0.04 0.04 0.07 0.10 0.14 0.26 0.33 0.58 1.00 1.21 1.28 1.29 1.35 1.32 1.38 1.29 1.18 1.25 1.39 1.71 2.00 2.28 2.54 2.83 3.12 3.51 4.16 4.93 5.47 5.85 6.12 6.09 5.69 5.20 4.61 4.16 3.80 3.48
0.00 0.01 0.02 0.02 0.02 0.02 0.02 0.04 0.09 0.11 0.16 0.36 0.31 0.51 1.05 1.25 1.33 1.44 1.39 1.36 1.36 1.29 1.24 1.26 1.34 1.57 1.83 2.00 2.23 2.55 2.94 3.25 3.78 4.52 5.13 5.43 5.65 5.59 5.22 4.60 4.07 3.68 3.28 2.95
0.02 0.02 0.01 0.01 0.01 0.02 0.02 0.08 0.23 0.34 0.38 0.38 0.30 0.53 1.07 1.22 1.32 1.42 1.48 1.55 1.51 1.35 1.28 1.27 1.27 1.41 1.62 1.76 1.97 2.20 2.52 2.94 3.28 3.67 4.23 4.41 4.46 4.29 3.91 3.64 3.42 3.05 2.66 2.35
0.11 0.08 0.04 0.02 0.02 0.03 0.03 0.07 0.29 0.44 0.46 0.50 0.54 0.90 1.35 1.31 1.35 1.37 1.38 1.36 1.34 1.31 1.18 1.19 1.18 1.32 1.53 1.67 1.84 1.99 2.19 2.55 2.85 2.97 3.13 3.14 3.07 3.00 2.84 2.65 2.40 2.17 1.94 1.79
0.18 0.15 0.05 0.02 0.01 0.02 0.03 0.05 0.13 0.20 0.29 0.49 0.78 1.20 1.59 1.70 1.58 1.45 1.42 1.30 1.24 1.23 1.16 1.16 1.16 1.25 1.43 1.55 1.66 1.72 1.75 1.89 1.98 2.08 2.15 2.19 2.16 2.03 1.99 1.93 1.75 1.61 1.46 1.34
0.13 0.12 0.06 0.04 0.03 0.03 0.03 0.06 0.10 0.20 0.38 0.62 0.92 1.42 1.79 2.01 1.87 1.53 1.35 1.23 1.17 1.17 1.16 1.18 1.19 1.23 1.22 1.27 1.35 1.41 1.42 1.44 1.46 1.49 1.47 1.56 1.56 1.45 1.36 1.30 1.25 1.16 1.08 1.00
0.13 0.13 0.10 0.06 0.08 0.09 0.07 0.08 0.12 0.21 0.29 0.52 0.97 1.58 1.73 2.05 2.02 1.77 1.50 1.29 1.25 1.28 1.25 1.20 1.19 1.15 1.08 1.05 1.06 1.14 1.21 1.23 1.26 1.26 1.26 1.30 1.29 1.20 1.10 1.04 0.99 0.93 0.89 0.85
0.13 0.19 0.20 0.14 0.12 0.11 0.11 0.13 0.18 0.35 0.39 0.41 0.87 1.73 1.74 1.86 1.97 1.93 1.78 1.57 1.40 1.31 1.24 1.17 1.13 1.14 1.07 1.02 0.96 1.01 1.04 1.00 1.04 1.08 1.17 1.22 1.17 1.12 1.05 0.97 0.90 0.86 0.77 0.72
0.14 0.28 0.46 0.52 0.47 0.26 0.19 0.16 0.17 0.21 0.31 0.46 0.94 1.77 1.98 2.04 1.96 1.93 1.81 1.59 1.45 1.42 1.37 1.26 1.15 1.09 1.04 1.02 1.01 1.00 0.99 0.95 0.94 0.89 0.90 0.99 0.99 0.97 0.93 0.84 0.76 0.70 0.65 0.63
0.12 0.35 0.61 0.99 0.91 0.50 0.29 0.22 0.20 0.24 0.41 0.59 0.92 1.42 1.63 1.94 2.13 1.95 1.70 1.50 1.42 1.51 1.37 1.23 1.16 1.09 1.01 0.97 1.00 0.99 0.93 0.85 0.84 0.81 0.82 0.87 0.88 0.88 0.90 0.83 0.73 0.63 0.56 0.54
0.18 0.44 0.49 0.54 0.37 0.29 0.29 0.28 0.27 0.29 0.39 0.70 1.06 1.44 1.73 1.98 2.01 1.87 1.56 1.35 1.36 1.42 1.42 1.35 1.23 1.12 0.96 0.87 0.88 0.88 0.86 0.81 0.78 0.80 0.83 0.90 0.85 0.82 0.87 0.90 0.80 0.68 0.59 0.52
0.21 0.41 0.43 0.44 0.36 0.35 0.43 0.40 0.42 0.45 0.52 0.70 1.05 1.53 1.72 1.69 1.49 1.47 1.43 1.32 1.44 1.59 1.66 1.59 1.42 1.25 1.07 0.96 0.92 0.90 0.86 0.77 0.71 0.74 0.85 0.91 0.90 0.88 0.89 0.94 0.89 0.79 0.69 0.61
0.27 0.47 0.60 0.62 0.46 0.59 0.93 0.72 0.66 0.66 0.68 0.80 1.13 1.28 1.22 1.27 1.26 1.30 1.33 1.40 1.60 1.76 1.72 1.57 1.43 1.29 1.17 1.11 1.02 0.99 0.92 0.81 0.78 0.80 0.83 0.88 0.90 0.95 0.95 0.92 0.88 0.84 0.74 0.66
0.29 0.51 0.66 0.62 0.74 1.26 1.20 0.72 0.65 0.69 0.69 0.65 0.75 0.77 0.85 1.01 1.15 1.29 1.38 1.53 1.72 1.83 1.85 1.77 1.57 1.42 1.26 1.11 1.02 0.94 0.87 0.82 0.84 0.85 0.83 0.78 0.77 0.79 0.77 0.81 0.86 0.81 0.74 0.66
0.17 0.42 0.71 0.81 1.07 1.30 1.13 0.70 0.61 0.76 0.88 0.63 0.57 0.57 0.65 0.77 0.96 1.37 1.51 1.60 1.75 1.81 1.75 1.68 1.55 1.46 1.34 1.18 1.04 0.95 0.89 0.83 0.81 0.80 0.75 0.67 0.62 0.64 0.63 0.68 0.75 0.73 0.70 0.62
0.18 0.28 0.68 0.89 1.28 1.65 1.40 0.64 0.39 0.66 1.20 0.78 0.51 0.45 0.56 0.80 1.12 1.29 1.30 1.38 1.41 1.38 1.29 1.27 1.24 1.21 1.15 1.04 0.93 0.92 0.90 0.80 0.73 0.68 0.61 0.56 0.53 0.56 0.58 0.61 0.67 0.66 0.64 0.53
0.49 0.54 0.74 0.95 1.29 1.51 0.79 0.42 0.46 1.12 1.43 0.95 0.70 0.62 0.69 0.93 1.02 0.89 0.87 1.01 1.10 1.14 1.09 1.03 1.00 1.02 1.00 0.89 0.86 0.88 0.85 0.77 0.62 0.52 0.51 0.52 0.55 0.57 0.56 0.61 0.65 0.60 0.53 0.49
0.62 0.75 0.88 1.09 1.44 1.56 0.62 0.46 0.85 1.01 0.74 0.70 0.69 0.71 0.74 0.73 0.66 0.63 0.66 0.84 1.05 1.18 1.14 1.05 0.98 0.92 0.84 0.80 0.85 0.88 0.79 0.61 0.49 0.47 0.51 0.54 0.54 0.51 0.50 0.58 0.63 0.55 0.52 0.50
0.78 0.84 0.93 1.13 1.31 0.98 0.52 0.50 0.52 0.51 0.49 0.49 0.49 0.52 0.58 0.65 0.65 0.62 0.69 0.83 0.98 1.07 1.08 1.03 0.90 0.80 0.69 0.67 0.74 0.76 0.63 0.45 0.41 0.46 0.55 0.56 0.52 0.59 0.58 0.55 0.53 0.51 0.50 0.44
0.88 0.72 0.77 0.92 0.91 0.67 0.50 0.42 0.38 0.39 0.41 0.41 0.43 0.46 0.58 0.77 0.80 0.75 0.76 0.87 0.95 0.97 0.89 0.81 0.76 0.69 0.59 0.55 0.53 0.50 0.40 0.38 0.43 0.52 0.54 0.53 0.56 0.66 0.64 0.53 0.42 0.38 0.37 0.33
0.78 0.89 1.03 1.15 1.04 0.79 0.55 0.43 0.43 0.40 0.41 0.46 0.54 0.57 0.63 0.70 0.76 0.78 0.77 0.77 0.76 0.73 0.69 0.63 0.63 0.59 0.48 0.42 0.39 0.32 0.29 0.34 0.44 0.48 0.51 0.52 0.54 0.58 0.59 0.48 0.33 0.27 0.21 0.17
0.50 0.78 1.24 1.45 1.15 1.02 0.77 0.58 0.57 0.54 0.53 0.54 0.53 0.51 0.55 0.54 0.55 0.61 0.64 0.63 0.58 0.58 0.56 0.55 0.53 0.49 0.41 0.37 0.36 0.30 0.25 0.30 0.42 0.46 0.43 0.39 0.40 0.40 0.39 0.38 0.33 0.20 0.10 0.07